Cork, Ireland

1:09 AM GMT on November 25, 2017 (GMT +0000)
Cork

Weather History for EICK - February, 2013

Change the Weather History Date:

Thursday, February 21, 2013

  Actual Average Record
Temperature  
Mean Temperature 38 °F -  
Max Temperature 42 °F 48 °F 55 °F (2001)
Min Temperature 35 °F 38 °F 32 °F (2004)
Degree Days  
Heating Degree Days 26    
Moisture  
Dew Point 35 °F    
Average Humidity 79    
Maximum Humidity 87    
Minimum Humidity 66    
Precipitation  
Precipitation 0.00 in 0.13 in - ()
Sea Level Pressure  
Sea Level Pressure 29.98 in    
Wind  
Wind Speed 22 mph ()    
Max Wind Speed 28 mph    
Max Gust Speed 39 mph    
Visibility 6.3 miles    
Events      
Averages and records for this station are not official NWS values.
T = Trace of Precipitation, MM = Missing Value Source: Averaged Metar Reports

Daily Weather History Graph

Daily Weather History Graph

Search for Another Location

Airport or City:

Trip Planner

Search our weather history database for the weather conditions in past years. The results will help you decide how hot, cold, wet, or windy it might be!

Date:

Astronomy

Feb. 21, 2013 Rise Set
Actual Time 7:36 AM GMT 5:59 PM GMT
Civil Twilight 7:02 AM GMT 6:33 PM GMT
Nautical Twilight 6:23 AM GMT 7:12 PM GMT
Astronomical Twilight 5:44 AM GMT 7:51 PM GMT
Moon 1:41 PM GMT (2/21) 4:52 AM GMT (2/21)
Length of Visible Light 11h 31m
Length of Day
10h 23m
Waxing Gibbous, 82% of the Moon is Illuminated
Feb 21
Waxing Gibbous
Feb 25
Full
Mar 4
Last Quarter
Mar 11
New
Mar 19
First Quarter

Hourly Weather History & Observations

Time (GMT) Temp. Windchill Dew Point Humidity Pressure Visibility Wind Dir Wind Speed Gust Speed Precip Events Conditions
12:00 AM 43 °F - 39 °F 81% 29.99 in 6 mi ESE 26.8 mph - -   Mist
12:00 AM 42.8 °F 32.9 °F 39.2 °F 87% 29.95 in 5.6 mi ESE 26.5 mph - N/A   Mostly Cloudy
12:30 AM 42.8 °F 32.9 °F 37.4 °F 81% 29.98 in 5.6 mi ESE 26.5 mph 39.1 mph N/A   Mostly Cloudy
1:00 AM 42.8 °F 33.1 °F 37.4 °F 81% 29.98 in 5.6 mi ESE 25.3 mph 38.0 mph N/A   Mostly Cloudy
1:30 AM 42.8 °F 33.5 °F 37.4 °F 81% 29.95 in 5.6 mi ESE 23.0 mph - N/A   Mostly Cloudy
2:00 AM 42.8 °F 33.3 °F 37.4 °F 81% 29.95 in 5.6 mi ESE 24.2 mph - N/A   Mostly Cloudy
2:30 AM 42.8 °F 33.5 °F 39.2 °F 87% 29.95 in 5.6 mi ESE 23.0 mph - N/A   Mostly Cloudy
3:00 AM 42.8 °F 33.8 °F 39.2 °F 87% 29.95 in 5.6 mi ESE 21.9 mph 33.4 mph N/A   Mostly Cloudy
3:30 AM 42.8 °F 33.8 °F 39.2 °F 87% 29.95 in 5.6 mi ESE 21.9 mph - N/A   Mostly Cloudy
4:00 AM 42.8 °F 34.3 °F 39.2 °F 87% 29.95 in 5.6 mi ESE 19.6 mph - N/A   Mostly Cloudy
4:30 AM 42.8 °F 34.0 °F 37.4 °F 81% 29.95 in 5.6 mi ESE 20.7 mph - N/A   Mostly Cloudy
5:00 AM 42.8 °F 33.8 °F 39.2 °F 87% 29.95 in 6.2 mi ESE 21.9 mph - N/A   Mostly Cloudy
5:30 AM 42.8 °F 33.1 °F 37.4 °F 81% 29.95 in 5.6 mi ESE 25.3 mph - N/A   Mostly Cloudy
6:00 AM 43 °F - 39 °F 79% 29.97 in 6 mi ESE 24.6 mph - -   Mist
6:00 AM 42.8 °F 33.3 °F 39.2 °F 87% 29.95 in 5.6 mi ESE 24.2 mph - N/A   Mostly Cloudy
6:30 AM 42.8 °F 33.3 °F 37.4 °F 81% 29.95 in 5.6 mi ESE 24.2 mph - N/A   Mostly Cloudy
7:00 AM 42.8 °F 34.0 °F 37.4 °F 81% 29.95 in 6.2 mi ESE 20.7 mph - N/A   Mostly Cloudy
7:30 AM 41.0 °F 30.2 °F 35.6 °F 81% 29.95 in 6.2 mi ESE 27.6 mph - N/A   Mostly Cloudy
8:00 AM 41.0 °F 30.5 °F 35.6 °F 81% 29.98 in 6.2 mi ESE 26.5 mph 38.0 mph N/A   Mostly Cloudy
8:30 AM 41.0 °F 30.9 °F 35.6 °F 81% 29.98 in 6.2 mi ESE 24.2 mph - N/A   Overcast
9:00 AM 41.0 °F 30.7 °F 35.6 °F 81% 29.98 in 6.2 mi ESE 25.3 mph 38.0 mph N/A   Overcast
9:30 AM 41.0 °F 31.1 °F 35.6 °F 81% 29.98 in 6.2 mi ESE 23.0 mph - N/A   Overcast
10:00 AM 41.0 °F 31.1 °F 35.6 °F 81% 29.98 in 6.2 mi ESE 23.0 mph - N/A   Overcast
10:30 AM 41.0 °F 31.1 °F 35.6 °F 81% 29.98 in 6.2 mi ESE 23.0 mph - N/A   Overcast
11:00 AM 41.0 °F 31.1 °F 35.6 °F 81% 30.01 in 6.2 mi ESE 23.0 mph - N/A   Overcast
11:30 AM 41.0 °F 30.9 °F 35.6 °F 81% 30.01 in 6.2 mi ESE 24.2 mph 35.7 mph N/A   Mostly Cloudy
12:00 PM 40 °F - 35 °F 77% 30.04 in 12 mi ESE 22.4 mph - -   Overcast
12:00 PM 41.0 °F 31.1 °F 35.6 °F 81% 30.01 in 6.2 mi ESE 23.0 mph - N/A   Mostly Cloudy
12:30 PM 41.0 °F 31.1 °F 33.8 °F 76% 30.01 in 6.2 mi ESE 23.0 mph 34.5 mph N/A   Mostly Cloudy
1:00 PM 41.0 °F 30.7 °F 33.8 °F 76% 29.98 in 6.2 mi ESE 25.3 mph - N/A   Overcast
1:30 PM 41.0 °F 31.9 °F 33.8 °F 76% 29.98 in 6.2 mi ESE 19.6 mph - N/A   Overcast
2:00 PM 41.0 °F 30.9 °F 33.8 °F 76% 29.98 in 6.2 mi ESE 24.2 mph 35.7 mph N/A   Overcast
2:30 PM 41.0 °F 30.9 °F 33.8 °F 76% 29.98 in 6.2 mi ESE 24.2 mph - N/A   Overcast
3:00 PM 41.0 °F 31.4 °F 33.8 °F 76% 29.98 in 6.2 mi ESE 21.9 mph - N/A   Overcast
3:30 PM 41.0 °F 31.1 °F 33.8 °F 76% 29.98 in 6.2 mi ESE 23.0 mph - N/A   Mostly Cloudy
4:00 PM 39.2 °F 29.8 °F 33.8 °F 81% 29.98 in 6.2 mi ESE 18.4 mph - N/A   Mostly Cloudy
4:30 PM 39.2 °F 28.7 °F 33.8 °F 81% 29.98 in 6.2 mi ESE 23.0 mph - N/A   Mostly Cloudy
5:00 PM 39.2 °F 29.6 °F 32.0 °F 75% 29.98 in 6.2 mi ESE 19.6 mph - N/A   Mostly Cloudy
5:30 PM 39.2 °F 28.7 °F 30.2 °F 70% 29.98 in 6.2 mi ESE 23.0 mph - N/A   Mostly Cloudy
6:00 PM 39 °F - 32 °F 66% 30.02 in 12 mi ESE 20.1 mph - -   Mostly Cloudy
6:00 PM 39.2 °F 29.6 °F 32.0 °F 75% 29.98 in 6.2 mi ESE 19.6 mph - N/A   Mostly Cloudy
6:30 PM 39.2 °F 29.3 °F 32.0 °F 75% 29.98 in 6.2 mi ESE 20.7 mph - N/A   Mostly Cloudy
7:00 PM 39.2 °F 29.0 °F 30.2 °F 70% 30.01 in 6.2 mi ESE 21.9 mph - N/A   Mostly Cloudy
7:30 PM 39.2 °F 29.0 °F 32.0 °F 75% 30.01 in 6.2 mi East 21.9 mph - N/A   Mostly Cloudy
8:00 PM 39.2 °F 29.0 °F 30.2 °F 70% 30.01 in 6.2 mi ESE 21.9 mph - N/A   Mostly Cloudy
8:30 PM 37.4 °F 26.6 °F 30.2 °F 75% 30.01 in 6.2 mi ESE 21.9 mph - N/A   Mostly Cloudy
9:00 PM 37.4 °F 26.6 °F 30.2 °F 75% 30.01 in 6.2 mi East 21.9 mph - N/A   Mostly Cloudy
9:30 PM 37.4 °F 27.8 °F 30.2 °F 75% 30.01 in 6.2 mi ESE 17.3 mph - N/A   Mostly Cloudy
10:00 PM 37.4 °F 26.6 °F 28.4 °F 70% 30.01 in 6.2 mi East 21.9 mph 33.4 mph N/A   Mostly Cloudy
10:30 PM 37.4 °F 26.4 °F 28.4 °F 70% 30.01 in 6.2 mi ESE 23.0 mph 34.5 mph N/A   Mostly Cloudy
11:00 PM 35.6 °F 24.2 °F 30.2 °F 81% 30.01 in 6.2 mi ESE 21.9 mph - N/A   Mostly Cloudy
11:30 PM 35.6 °F 25.2 °F 28.4 °F 75% 30.01 in 6.2 mi ESE 18.4 mph - N/A   Mostly Cloudy